Location: Bambrugge
(50.9212°N, 3.9299°E)
Time: 10:28:26
(UTC+00:00)

SL-24 R/B - Pass Details

Date: 23 May 2024
Orbit: 716 x 1115 km, 91.9° (Epoch: 14 June)

Event Time Altitude Azimuth Distance (km) Brightness Sun altitude
Exits shadow 02:28:14 - 184° (S) 2,543 6.7 -9.6°
Reaches altitude 10° 02:29:00 10° 185° (S) 2,234 6.4 -9.5°
Maximum altitude 02:33:51 65° 268° (W) 793 4.4 -9.0°
Drops below altitude 10° 02:38:40 10° 350° (N) 2,219 7.5 -8.5°
Sets 02:40:59 0° 354° (N) 3,160 8.4 -8.2°
